[[{"header":{"parameterUnit":"m.s-1","parameterCategory":1,"la1":30.2991,"la2":30.254,"lo1":-89.0895,"lo2":-89.0444,"dy":0.0017,"dx":0.0017,"nx":28,"ny":28,"refTime":"2025-02-28T03:00:00:Z","depth":0,"parameterNumber":2,"parameterNumberName":"U-component_of_WINDS"},"data":[0,0,0,0,0,0,0,0,0,0,0,0,0,0,0,0,0,0,0,0,0,0,0,0,0,0,0,0,0,0,0,0,0,0,0,0,0,0,0,0,0,0,0,0,0,0,0,0,0,0,0,0,0,0,0,0,0,0,0.2077,0.2078,0,0.2198,0.22,0.2201,0.2239,0.2239,0.2238,0.2238,0.2364,0.2368,0.2372,0,0,0,0,0,0,0,0,0,0,0,0,0,0.1878,0.1881,0.2076,0.2078,0.208,0.2198,0.22,0.2201,0.224,0.2239,0.2238,0.2238,0.2363,0.2368,0.2372,0,0,0,0,0,0,0,0,0,0,0,0,0,0.1978,0.1883,0.2076,0.2113,0.2117,0.2198,0.22,0.2202,0.224,0.2239,0.2238,0.2237,0.2362,0.2367,0.2373,0.2426,0,0,0.2391,0.2394,0,0,0,0,0,0,0,0,0.1973,0.1986,0.2106,0.211,0.2116,0.2203,0.2176,0.2277,0.224,0.2193,0.2238,0.2237,0.2311,0.2321,0.2346,0.2432,0.2438,0.2392,0.2395,0.2398,0.2399,0,0,0,0,0,0,0,0.1966,0.1981,0.2125,0.2108,0.2114,0.2123,0.2137,0.2195,0.2256,0.2197,0.22,0.2214,0.2314,0.234,0.2349,0.244,0.2391,0.2397,0.24,0.2402,0.2574,0.2575,0,0,0,0,0,0,0.1952,0.1975,0.2121,0.2128,0.204,0.2128,0.2143,0.2176,0.2255,0.2267,0.2215,0.2215,0.2331,0.2343,0.2354,0.2421,0.2398,0.2403,0.2406,0.2573,0.2574,0.2575,0,0,0,0,0,0,0.1948,0.1965,0.2116,0.2052,0.2072,0.2132,0.2169,0.2179,0.2205,0.2268,0.2279,0.2231,0.2331,0.2346,0.2408,0.2426,0.2406,0.2411,0.2572,0.2573,0.2575,0.2556,0,0,0,0,0,0,0.1942,0.1963,0.1984,0.2052,0.2075,0.2167,0.217,0.2182,0.2215,0.2217,0.2286,0.2297,0.2331,0.2399,0.2413,0.2434,0.2416,0.257,0.2572,0.2574,0.2555,0.2556,0.2558,0,0,0,0,0,0.1935,0.1975,0.1985,0.2002,0.2103,0.2168,0.2182,0.222,0.2216,0.2238,0.2278,0.2295,0.2421,0.2405,0.2422,0.2444,0.2569,0.2572,0.2574,0.2554,0.2556,0.2558,0,0,0,0,0,0,0.1909,0.1985,0.1997,0.206,0.2107,0.2175,0.2203,0.222,0.227,0.227,0.2316,0.2331,0.2389,0.2423,0.2403,0.2499,0.2496,0.2502,0.2475,0.2477,0.2479,0.247,0.242,0,0,0,0,0,0.191,0.1956,0.202,0.207,0.2093,0.2144,0.2174,0.2198,0.225,0.227,0.2315,0.2364,0.2415,0.2448,0.2498,0.2559,0.2575,0.2583,0.2584,0.2585,0.259,0.2623,0.2627,0.2583,0.2583,0.2583,0,0,0.1914,0.1961,0.1988,0.2066,0.2105,0.2152,0.216,0.2211,0.2246,0.2278,0.2339,0.2373,0.2431,0.2492,0.2522,0.2522,0.2605,0.2588,0.2588,0.2593,0.2626,0.263,0.2634,0.2584,0.2584,0.2584,0,0,0.1945,0.1985,0.203,0.2069,0.2128,0.2161,0.2172,0.2236,0.226,0.2321,0.2346,0.2389,0.2475,0.2515,0.2547,0.259,0.2607,0.2605,0.2612,0.2645,0.2648,0.2651,0.2667,0.2671,0.2609,0.2609,0.2609,0,0.1942,0.2014,0.2052,0.21,0.2133,0.2162,0.2208,0.2244,0.2317,0.2339,0.2338,0.2446,0.2488,0.2558,0.2568,0.2593,0.2606,0.2598,0.2644,0.2648,0.2652,0.2667,0.2672,0.2608,0.2609,0.2609,0.2609,0,0.2008,0.2057,0.2086,0.2154,0.2191,0.2238,0.2282,0.2314,0.2335,0.2368,0.2429,0.2479,0.2539,0.2558,0.2579,0.2631,0.2629,0.2635,0.2634,0.2655,0.267,0.2676,0.2608,0.2608,0.2608,0.2608,0,0,0.2029,0.2114,0.2125,0.2155,0.2221,0.226,0.2308,0.2365,0.2392,0.244,0.2481,0.2552,0.2558,0.2594,0.262,0.2648,0.2678,0.2651,0.2653,0.2654,0.2737,0.2732,0.2738,0.2688,0.269,0.2691,0.2732,0,0.2068,0.2154,0.2188,0.2258,0.2303,0.233,0.2371,0.2416,0.2447,0.249,0.2525,0.2575,0.2579,0.26,0.2629,0.2668,0.2695,0.2665,0.2727,0.2729,0.2713,0.2746,0.2742,0.2778,0.2738,0.2739,0.274,0,0.2127,0.2174,0.2248,0.2307,0.2327,0.2364,0.2418,0.2459,0.251,0.2531,0.2569,0.2592,0.2643,0.2636,0.2706,0.2684,0.2712,0.2734,0.2736,0.2745,0.2737,0.2756,0.2791,0.2797,0.2749,0.2749,0.2748,0,0.2134,0.2217,0.2271,0.2296,0.2366,0.2391,0.2422,0.2471,0.2503,0.2551,0.2572,0.2625,0.2654,0.2694,0.2731,0.2723,0.2797,0.2794,0.2816,0.2815,0.2832,0.283,0.2873,0.2848,0.2848,0.2847,0.2847,0,0.2176,0.222,0.2275,0.2309,0.2359,0.2397,0.2445,0.2477,0.2521,0.2561,0.2587,0.2624,0.267,0.2713,0.2742,0.2795,0.2808,0.2826,0.2833,0.2824,0.2822,0.2844,0.2842,0.2849,0.2849,0.2848,0.2848,0,0.2194,0.2232,0.2294,0.2354,0.237,0.2404,0.2455,0.2489,0.252,0.257,0.2584,0.2634,0.2686,0.2726,0.2793,0.2813,0.2868,0.2876,0.2851,0.2855,0.2875,0.2872,0.2933,0.2943,0.2911,0.2911,0.2911,0,0.2218,0.2253,0.2316,0.2344,0.2374,0.2419,0.2451,0.2489,0.2521,0.258,0.2606,0.2659,0.2704,0.2785,0.2827,0.2878,0.2888,0.2905,0.2896,0.2885,0.2888,0.2886,0.2889,0.2907,0.2907,0.2907,0.2907,0,0.2257,0.2274,0.2319,0.237,0.2407,0.245,0.2492,0.2514,0.2559,0.2594,0.2647,0.2681,0.2749,0.2801,0.2856,0.2887,0.2905,0.291,0.2918,0.2909,0.2893,0.2902,0.2855,0.2909,0.2909,0.2908,0.2908,0.2908,0.228,0.2311,0.2359,0.2408,0.2444,0.2483,0.2517,0.2551,0.2595,0.2653,0.2672,0.2726,0.2774,0.285,0.2881,0.2923,0.2925,0.2936,0.2939,0.2941,0.294,0.2885,0.2934,0.2934,0.2934,0.2934,0.2934,0,0.232,0.2352,0.2396,0.2455,0.2492,0.2504,0.2551,0.2583,0.2629,0.2672,0.2715,0.2774,0.2824,0.2869,0.2921,0.2946,0.2956,0.2959,0.2958,0.2965,0.2937,0.2925,0.295,0.295,0.295,0.295,0.295,0.295,0.2346,0.2399,0.2421,0.2491,0.2523,0.2576,0.2601,0.2637,0.2671,0.2736,0.2778,0.2806,0.285,0.2905,0.2951,0.2963,0.2981,0.2982,0.2996,0.2969,0.2967,0.2965,0.2954,0.2985,0.2985,0.302,0.3021,0.3021]},{"header":{"parameterUnit":"m.s-1","parameterCategory":1,"la1":30.2991,"la2":30.254,"lo1":-89.0895,"lo2":-89.0444,"dy":0.0017,"dx":0.0017,"nx":28,"ny":28,"refTime":"2025-02-28T03:00:00:Z","depth":0,"parameterNumber":3,"parameterNumberName":"V-component_of_WINDS"},"data":[0,0,0,0,0,0,0,0,0,0,0,0,0,0,0,0,0,0,0,0,0,0,0,0,0,0,0,0,0,0,0,0,0,0,0,0,0,0,0,0,0,0,0,0,0,0,0,0,0,0,0,0,0,0,0,0,0,0,2.0699,2.0698,0,2.063,2.063,2.0629,2.0674,2.0676,2.0678,2.068,2.0604,2.06,2.0597,0,0,0,0,0,0,0,0,0,0,0,0,0,2.0864,2.0861,2.0699,2.0698,2.0697,2.0631,2.063,2.0629,2.0673,2.0676,2.0678,2.0681,2.0606,2.0601,2.0596,0,0,0,0,0,0,0,0,0,0,0,0,0,2.0794,2.086,2.0699,2.0712,2.0712,2.0631,2.063,2.0628,2.0673,2.0676,2.0679,2.0682,2.0607,2.0601,2.0596,2.0497,0,0,2.0577,2.0575,0,0,0,0,0,0,0,0,2.0798,2.0787,2.0711,2.0711,2.0711,2.0664,2.066,2.0584,2.0672,2.0687,2.068,2.0683,2.0621,2.0614,2.0594,2.0493,2.049,2.0577,2.0573,2.0571,2.0569,0,0,0,0,0,0,0,2.0802,2.0791,2.0672,2.0709,2.071,2.0719,2.0713,2.0646,2.0637,2.0686,2.0689,2.0681,2.0622,2.06,2.0593,2.0489,2.0577,2.0572,2.0568,2.0566,2.0303,2.03,0,0,0,0,0,0,2.0807,2.0794,2.0674,2.067,2.0763,2.0714,2.0706,2.0676,2.0638,2.0636,2.0678,2.0683,2.0609,2.06,2.0591,2.0473,2.0571,2.0565,2.0562,2.0307,2.0302,2.0299,0,0,0,0,0,0,2.081,2.0796,2.0677,2.0733,2.0719,2.0708,2.0673,2.0673,2.0651,2.0633,2.0631,2.0658,2.0611,2.0599,2.052,2.0471,2.0563,2.0557,2.0311,2.0305,2.03,2.0236,0,0,0,0,0,0,2.0815,2.0797,2.076,2.0732,2.0715,2.0608,2.067,2.0669,2.0641,2.0647,2.0613,2.061,2.0612,2.0529,2.0514,2.0464,2.0553,2.0315,2.0308,2.0302,2.0242,2.0229,2.0218,0,0,0,0,0,2.0821,2.0743,2.0758,2.0743,2.0669,2.0606,2.0596,2.0602,2.0637,2.06,2.0588,2.0611,2.0479,2.052,2.0504,2.0452,2.0318,2.031,2.0303,2.0248,2.0232,2.0218,0,0,0,0,0,0,2.0763,2.074,2.0756,2.0667,2.0638,2.0613,2.0566,2.0584,2.0543,2.055,2.0557,2.0549,2.0467,2.0451,2.0498,2.0354,2.0404,2.0392,2.0367,2.0352,2.034,2.0345,2.0548,0,0,0,0,0,2.0741,2.0693,2.0674,2.0597,2.0582,2.0576,2.0549,2.0556,2.0526,2.0513,2.0495,2.0464,2.0415,2.0383,2.0337,2.0241,2.0233,2.0196,2.0184,2.0174,2.0164,2.0112,2.0096,2.0273,2.0273,2.0274,0,0,2.0693,2.0674,2.0643,2.0585,2.0564,2.0513,2.0566,2.0509,2.047,2.0504,2.0429,2.0415,2.038,2.0292,2.0253,2.0277,2.0114,2.0164,2.0157,2.0152,2.0103,2.0086,2.0071,2.0268,2.0269,2.027,0,0,2.058,2.0561,2.0495,2.0473,2.0441,2.0438,2.0422,2.0395,2.0387,2.0313,2.0337,2.0291,2.0206,2.0181,2.0157,2.0035,2.0055,2.002,1.9956,1.9905,1.9891,1.9879,1.9835,1.982,2.001,2.001,2.001,0,2.0524,2.0449,2.0459,2.0401,2.0375,2.0405,2.0338,2.0316,2.0269,2.025,2.0278,2.0174,2.0152,2.0059,2.003,2.0009,1.9991,2.0024,1.9893,1.988,1.9869,1.9827,1.9811,2.0006,2.0006,2.0007,2.0007,0,2.0382,2.033,2.028,2.0237,2.0206,2.0143,2.0143,2.0109,2.0119,2.0113,2.0036,2.0012,1.9962,1.994,1.9949,1.9848,1.9864,1.9892,1.9942,1.9848,1.9809,1.9793,2.0,2.0001,2.0003,2.0004,0,0,2.0229,2.0194,2.0176,2.0157,2.0124,2.0083,2.0022,1.9975,1.9946,1.9913,1.9861,1.979,1.9817,1.9789,1.9795,1.975,1.9656,1.9784,1.9783,1.9761,1.9544,1.9523,1.9505,1.9669,1.9666,1.9664,1.9547,0,2.0115,2.001,2.0018,1.9919,1.987,1.9899,1.9846,1.9819,1.9811,1.9768,1.9759,1.9709,1.9747,1.9731,1.9688,1.9676,1.9612,1.9685,1.962,1.9618,1.9628,1.9484,1.9462,1.9352,1.9532,1.9529,1.9527,0,1.9966,1.9931,1.9827,1.9803,1.9783,1.9735,1.9693,1.9652,1.9622,1.9619,1.959,1.9603,1.954,1.9592,1.9505,1.9555,1.9529,1.9519,1.9515,1.9509,1.9567,1.9474,1.9318,1.9301,1.9504,1.9505,1.9507,0,1.9866,1.9792,1.9721,1.9703,1.9673,1.9639,1.9624,1.9597,1.9569,1.9532,1.9513,1.9468,1.9444,1.9408,1.9409,1.9447,1.9321,1.9373,1.9316,1.9316,1.9288,1.929,1.9125,1.9271,1.9272,1.9272,1.9272,0,1.9737,1.9672,1.9675,1.9631,1.956,1.9569,1.9497,1.9486,1.9463,1.9416,1.9437,1.9393,1.9397,1.9351,1.9351,1.928,1.9268,1.9264,1.9264,1.9262,1.9262,1.9244,1.9252,1.9268,1.9269,1.9269,1.927,0,1.9612,1.9612,1.9536,1.9514,1.9507,1.9455,1.9436,1.9393,1.9389,1.933,1.9316,1.9307,1.9256,1.9253,1.9192,1.9192,1.9105,1.9114,1.9116,1.9117,1.9061,1.9066,1.8879,1.8855,1.9017,1.9015,1.9014,0,1.9529,1.9481,1.9454,1.9426,1.941,1.9363,1.9335,1.9342,1.9311,1.9275,1.9236,1.9187,1.9148,1.9063,1.9051,1.9005,1.9013,1.895,1.9006,1.9005,1.9011,1.9014,1.9009,1.8939,1.8937,1.8936,1.8935,0,1.9383,1.9385,1.9345,1.9304,1.9271,1.9239,1.9209,1.9184,1.9187,1.9152,1.91,1.907,1.9009,1.896,1.8915,1.8898,1.8916,1.8918,1.8902,1.8898,1.8901,1.8899,1.9086,1.8921,1.8923,1.8924,1.8924,1.8925,1.9276,1.9235,1.921,1.9165,1.9144,1.9116,1.9076,1.9066,1.9024,1.8977,1.8983,1.8925,1.8897,1.8839,1.8819,1.8773,1.8794,1.8772,1.8766,1.876,1.8755,1.8909,1.8765,1.8765,1.8766,1.8766,1.8766,0,1.9131,1.9117,1.9075,1.9034,1.8998,1.9021,1.8989,1.8957,1.8907,1.888,1.8841,1.8782,1.8734,1.8718,1.8672,1.8638,1.8645,1.8626,1.8628,1.8624,1.8738,1.8756,1.8621,1.8621,1.8621,1.8621,1.8621,1.8621,1.9051,1.8982,1.8982,1.8903,1.8889,1.8835,1.8815,1.8789,1.8767,1.8701,1.8662,1.8653,1.863,1.8582,1.8539,1.8536,1.8517,1.8494,1.8494,1.8601,1.8616,1.863,1.8647,1.849,1.849,1.8383,1.8382,1.8382]}]]